Regional Weather Roundup
Issued by NWS

Home | Current Version | Previous Version | Graphics & Text | Print | Product List | Glossary On
Versions: 1 2 3 4 5 6 7 8 9 10 11 12 13 14 15 16 17 18 19 20 21 22 23 24 25 26 27 28 29 30 31 32 33 34 35 36 37 38 39 40 41 42 43 44 45 46 47 48 49 50
000
ASUS43 KFSD 281202
RWRSD

WEATHER ROUNDUP FOR SOUTH DAKOTA
NATIONAL WEATHER SERVICE SIOUX FALLS SD
700 AM CDT SAT MAY 28 2016

NOTE: "FAIR" INDICATES FEW OR NO CLOUDS BELOW 12,000 FEET WITH NO
SIGNIFICANT WEATHER AND/OR OBSTRUCTIONS TO VISIBILITY.


SDZ001>005-009-010-012>017-281300-
NORTHWEST AND NORTH CENTRAL SOUTH DAKOTA

CITY           SKY/WX    TMP DP  RH WIND       PRES   REMARKS
BUFFALO          N/A     49  45  86 W5        29.81S
FAITH            N/A     48  45  89 NW7       29.86R
MOBRIDGE       PTCLDY    54  50  86 N6        29.80R
$$

SDZ012>016-024>037-041>051-057-063-072>074-281300-
SOUTHWEST AND SOUTH CENTRAL SOUTH DAKOTA

CITY           SKY/WX    TMP DP  RH WIND       PRES   REMARKS
RAPID CTY ARPT CLEAR     45  43  93 NW7       29.88R
PIERRE         CLOUDY    56  53  90 NW7       29.79R
CUSTER         CLEAR     44  39  82 NW5       29.94S
PHILIP         PTCLDY    46  45  96 W7        29.85R
PINE RIDGE     FOG       37  36  96 CALM      29.90R VSB 1/4
WINNER         CLOUDY    57  53  86 W7        29.81R
$$

SDZ004>011-016>023-039-040-281300-
NORTHEAST SOUTH DAKOTA

CITY           SKY/WX    TMP DP  RH WIND       PRES   REMARKS
ABERDEEN       CLOUDY    60  57  89 NE6       29.79S FOG
WATERTOWN      FOG       60  58  92 N9        29.77S VSB 1
BROOKINGS      RAIN      60  59  96 SE8       29.75R FOG
SISSETON         N/A     60  57  89 NE7       29.78S
$$

SDZ017-020-022-023-036>040-048>070-281300-
SOUTHEAST SOUTH DAKOTA

CITY           SKY/WX    TMP DP  RH WIND       PRES   REMARKS
SIOUX FALLS    RAIN      61  59  93 NE6       29.73S FOG
HURON          CLOUDY    58  57  97 NE6       29.76R FOG
MITCHELL       RAIN      60  59  96 NW8       29.77R FOG
YANKTON        CLOUDY    59  57  94 NW7       29.72R
$$

ABBREVIATIONS USED IN REMARKS
   TC - TEMPERATURE IN CELSIUS
  WCI - WIND CHILL INDEX
   HX - HEAT INDEX
  VSB - VISIBILITY




USA.gov is the U.S. government's official web portal to all federal, state and local government web resources and services.